Time,TemperatureF,DewpointF,PressureIn,WindDirection,WindDirectionDegrees,WindSpeedMPH,WindSpeedGustMPH,Humidity,HourlyPrecipIn,Conditions,Clouds,dailyrainin,SoftwareType,DateUTC
2013-06-24 00:02:00,76.7,64.9,30.01,SSW,204,2.0,9.0,67,0.00,,,0.00,Wunderground v.1.15,2013-06-24 04:02:00,
2013-06-24 00:06:00,76.5,64.7,30.01,South,181,1.0,9.0,67,0.00,,,0.00,Wunderground v.1.15,2013-06-24 04:06:00,
2013-06-24 00:10:00,76.2,64.4,30.01,South,191,1.0,9.0,67,0.00,,,0.00,Wunderground v.1.15,2013-06-24 04:10:00,
2013-06-24 00:13:00,76.1,64.8,30.01,SE,136,1.0,9.0,68,0.00,,,0.00,Wunderground v.1.15,2013-06-24 04:13:00,
2013-06-24 00:18:00,75.8,64.5,30.01,SE,127,1.0,9.0,68,0.00,,,0.00,Wunderground v.1.15,2013-06-24 04:18:00,
2013-06-24 00:23:00,75.5,64.6,30.01,ESE,119,0.0,9.0,69,0.00,,,0.00,Wunderground v.1.15,2013-06-24 04:23:00,
2013-06-24 00:29:00,75.2,64.3,30.01,South,187,0.0,9.0,69,0.00,,,0.00,Wunderground v.1.15,2013-06-24 04:29:00,
2013-06-24 00:35:00,74.8,64.4,30.01,SE,133,1.0,9.0,70,0.00,,,0.00,Wunderground v.1.15,2013-06-24 04:35:00,
2013-06-24 00:41:00,74.5,64.5,30.01,SE,145,1.0,4.0,71,0.00,,,0.00,Wunderground v.1.15,2013-06-24 04:41:00,
2013-06-24 00:46:00,74.3,64.3,30.01,SE,131,1.0,4.0,71,0.00,,,0.00,Wunderground v.1.15,2013-06-24 04:46:00,
2013-06-24 00:51:00,74.1,64.5,30.01,SE,131,0.0,4.0,72,0.00,,,0.00,Wunderground v.1.15,2013-06-24 04:51:00,
2013-06-24 00:58:00,73.3,64.1,30.01,SE,128,0.0,4.0,73,0.00,,,0.00,Wunderground v.1.15,2013-06-24 04:58:00,
2013-06-24 01:04:00,72.9,64.5,30.01,SE,128,0.0,4.0,75,0.00,,,0.00,Wunderground v.1.15,2013-06-24 05:04:00,
2013-06-24 01:10:00,72.4,64.0,30.01,SE,130,0.0,4.0,75,0.00,,,0.00,Wunderground v.1.15,2013-06-24 05:10:00,
2013-06-24 01:16:00,72.2,64.2,30.01,SE,129,0.0,4.0,76,0.00,,,0.00,Wunderground v.1.15,2013-06-24 05:16:00,
2013-06-24 01:23:00,71.4,64.2,30.01,SE,131,0.0,4.0,78,0.00,,,0.00,Wunderground v.1.15,2013-06-24 05:23:00,
2013-06-24 01:29:00,70.9,63.7,30.01,SE,130,0.0,4.0,78,0.00,,,0.00,Wunderground v.1.15,2013-06-24 05:29:00,
2013-06-24 01:34:00,70.5,64.0,30.01,SE,131,0.0,4.0,80,0.00,,,0.00,Wunderground v.1.15,2013-06-24 05:34:00,
2013-06-24 01:40:00,70.1,64.0,30.01,SE,131,0.0,2.0,81,0.00,,,0.00,Wunderground v.1.15,2013-06-24 05:40:00,
2013-06-24 01:48:00,70.3,63.8,30.01,SE,127,1.0,2.0,80,0.00,,,0.00,Wunderground v.1.15,2013-06-24 05:48:00,
2013-06-24 01:53:00,70.6,63.8,30.01,ESE,109,2.0,3.0,79,0.00,,,0.00,Wunderground v.1.15,2013-06-24 05:53:00,
2013-06-24 01:59:00,71.0,63.4,30.01,SSW,197,2.0,2.0,77,0.00,,,0.00,Wunderground v.1.15,2013-06-24 05:59:00,
2013-06-24 02:04:00,71.2,63.2,30.01,ESE,102,2.0,2.0,76,0.00,,,0.00,Wunderground v.1.15,2013-06-24 06:04:00,
2013-06-24 02:10:00,71.4,63.4,30.01,SSE,156,2.0,5.0,76,0.00,,,0.00,Wunderground v.1.15,2013-06-24 06:10:00,
2013-06-24 02:16:00,71.3,63.3,30.01,SE,125,2.0,5.0,76,0.00,,,0.00,Wunderground v.1.15,2013-06-24 06:16:00,
2013-06-24 02:21:00,71.2,63.2,30.01,SSW,212,2.0,5.0,76,0.00,,,0.00,Wunderground v.1.15,2013-06-24 06:21:00,
2013-06-24 02:27:00,71.2,63.2,30.01,ESE,114,2.0,6.0,76,0.00,,,0.00,Wunderground v.1.15,2013-06-24 06:27:00,
2013-06-24 02:33:00,71.1,63.1,30.01,SSE,160,2.0,5.0,76,0.00,,,0.00,Wunderground v.1.15,2013-06-24 06:33:00,
2013-06-24 02:38:00,71.0,63.1,30.01,SSE,162,2.0,5.0,76,0.00,,,0.00,Wunderground v.1.15,2013-06-24 06:38:00,
2013-06-24 02:44:00,71.0,63.1,30.01,East,101,3.0,5.0,76,0.00,,,0.00,Wunderground v.1.15,2013-06-24 06:44:00,
2013-06-24 02:49:00,70.9,63.0,30.01,SSE,162,3.0,6.0,76,0.00,,,0.00,Wunderground v.1.15,2013-06-24 06:49:00,
2013-06-24 02:55:00,70.7,63.1,30.01,ENE,71,2.0,6.0,77,0.00,,,0.00,Wunderground v.1.15,2013-06-24 06:55:00,
2013-06-24 03:01:00,70.6,63.0,30.01,East,99,2.0,6.0,77,0.00,,,0.00,Wunderground v.1.15,2013-06-24 07:01:00,
2013-06-24 03:07:00,70.5,62.9,30.02,SE,135,2.0,7.0,77,0.00,,,0.00,Wunderground v.1.15,2013-06-24 07:07:00,
2013-06-24 03:14:00,70.3,63.1,30.02,SE,129,2.0,7.0,78,0.00,,,0.00,Wunderground v.1.15,2013-06-24 07:14:00,
2013-06-24 03:20:00,70.2,63.0,30.02,WSW,243,2.0,7.0,78,0.00,,,0.00,Wunderground v.1.15,2013-06-24 07:20:00,
2013-06-24 03:28:00,70.0,62.8,30.02,SE,125,3.0,3.0,78,0.00,,,0.00,Wunderground v.1.15,2013-06-24 07:28:00,
2013-06-24 03:35:00,69.9,63.1,30.02,ESE,111,2.0,7.0,79,0.00,,,0.00,Wunderground v.1.15,2013-06-24 07:35:00,
2013-06-24 03:40:00,70.0,62.8,30.02,SE,132,2.0,6.0,78,0.00,,,0.00,Wunderground v.1.15,2013-06-24 07:40:00,
2013-06-24 03:46:00,69.9,62.7,30.02,SSE,150,2.0,6.0,78,0.00,,,0.00,Wunderground v.1.15,2013-06-24 07:46:00,
2013-06-24 03:52:00,69.8,63.0,30.02,SE,132,1.0,6.0,79,0.00,,,0.00,Wunderground v.1.15,2013-06-24 07:52:00,
2013-06-24 03:59:00,69.6,62.8,30.02,ESE,121,1.0,6.0,79,0.00,,,0.00,Wunderground v.1.15,2013-06-24 07:59:00,
2013-06-24 04:06:00,69.4,63.0,30.02,ESE,105,1.0,6.0,80,0.00,,,0.00,Wunderground v.1.15,2013-06-24 08:06:00,
2013-06-24 04:13:00,69.2,62.8,30.02,ESE,110,1.0,6.0,80,0.00,,,0.00,Wunderground v.1.15,2013-06-24 08:13:00,
2013-06-24 04:18:00,69.1,62.7,30.02,SE,131,1.0,5.0,80,0.00,,,0.00,Wunderground v.1.15,2013-06-24 08:18:00,
2013-06-24 04:24:00,69.0,62.6,30.02,SSE,148,1.0,5.0,80,0.00,,,0.00,Wunderground v.1.15,2013-06-24 08:24:00,
2013-06-24 04:29:00,68.9,62.8,30.02,SE,127,1.0,5.0,81,0.00,,,0.00,Wunderground v.1.15,2013-06-24 08:29:00,
2013-06-24 04:36:00,68.8,62.7,30.02,SSE,148,0.0,5.0,81,0.00,,,0.00,Wunderground v.1.15,2013-06-24 08:36:00,
2013-06-24 04:42:00,68.6,62.5,30.03,SE,125,0.0,3.0,81,0.00,,,0.00,Wunderground v.1.15,2013-06-24 08:42:00,
2013-06-24 04:48:00,68.5,62.4,30.02,SE,143,0.0,3.0,81,0.00,,,0.00,Wunderground v.1.15,2013-06-24 08:48:00,
2013-06-24 04:54:00,68.4,62.7,30.03,SE,134,0.0,3.0,82,0.00,,,0.00,Wunderground v.1.15,2013-06-24 08:54:00,
2013-06-24 05:02:00,68.1,62.4,30.03,SE,133,0.0,3.0,82,0.00,,,0.00,Wunderground v.1.15,2013-06-24 09:02:00,
2013-06-24 05:09:00,67.9,62.5,30.03,ESE,114,1.0,3.0,83,0.00,,,0.00,Wunderground v.1.15,2013-06-24 09:09:00,
2013-06-24 05:14:00,67.8,62.4,30.03,SE,143,1.0,3.0,83,0.00,,,0.00,Wunderground v.1.15,2013-06-24 09:14:00,
2013-06-24 05:19:00,67.7,62.3,30.03,SE,134,1.0,2.0,83,0.00,,,0.00,Wunderground v.1.15,2013-06-24 09:19:00,
2013-06-24 05:25:00,67.5,62.2,30.03,SE,131,1.0,2.0,83,0.00,,,0.00,Wunderground v.1.15,2013-06-24 09:25:00,
2013-06-24 05:31:00,67.1,62.1,30.03,SE,131,0.0,2.0,84,0.00,,,0.00,Wunderground v.1.15,2013-06-24 09:31:00,
2013-06-24 05:38:00,66.6,61.9,30.04,SE,131,0.0,5.0,85,0.00,,,0.00,Wunderground v.1.15,2013-06-24 09:38:00,
2013-06-24 05:43:00,66.3,62.0,30.04,SE,131,0.0,5.0,86,0.00,,,0.00,Wunderground v.1.15,2013-06-24 09:43:00,
2013-06-24 05:49:00,66.0,61.7,30.03,SE,131,0.0,5.0,86,0.00,,,0.00,Wunderground v.1.15,2013-06-24 09:49:00,
2013-06-24 05:55:00,65.9,61.9,30.03,SE,129,0.0,5.0,87,0.00,,,0.00,Wunderground v.1.15,2013-06-24 09:55:00,
2013-06-24 06:03:00,66.0,62.0,30.03,SE,134,1.0,5.0,87,0.00,,,0.00,Wunderground v.1.15,2013-06-24 10:03:00,
2013-06-24 06:08:00,65.9,61.9,30.03,SE,135,1.0,1.0,87,0.00,,,0.00,Wunderground v.1.15,2013-06-24 10:08:00,
2013-06-24 06:14:00,65.7,61.7,30.04,SSE,149,0.0,2.0,87,0.00,,,0.00,Wunderground v.1.15,2013-06-24 10:14:00,
2013-06-24 06:20:00,65.9,61.9,30.04,SE,134,1.0,2.0,87,0.00,,,0.00,Wunderground v.1.15,2013-06-24 10:20:00,
2013-06-24 06:26:00,65.9,61.9,30.04,SE,133,1.0,2.0,87,0.00,,,0.00,Wunderground v.1.15,2013-06-24 10:26:00,
2013-06-24 06:31:00,65.9,62.2,30.04,SE,133,0.0,2.0,88,0.00,,,0.00,Wunderground v.1.15,2013-06-24 10:31:00,
2013-06-24 06:36:00,66.0,62.3,30.04,ESE,119,0.0,2.0,88,0.00,,,0.00,Wunderground v.1.15,2013-06-24 10:36:00,
2013-06-24 06:42:00,66.4,62.4,30.04,SE,133,1.0,2.0,87,0.00,,,0.00,Wunderground v.1.15,2013-06-24 10:42:00,
2013-06-24 06:48:00,66.5,62.5,30.04,SE,136,1.0,1.0,87,0.00,,,0.00,Wunderground v.1.15,2013-06-24 10:48:00,
2013-06-24 06:55:00,66.7,62.7,30.04,South,177,0.0,2.0,87,0.00,,,0.00,Wunderground v.1.15,2013-06-24 10:55:00,
2013-06-24 07:01:00,67.0,63.0,30.04,SE,131,1.0,2.0,87,0.00,,,0.00,Wunderground v.1.15,2013-06-24 11:01:00,
2013-06-24 07:06:00,67.3,63.0,30.04,SE,138,1.0,3.0,86,0.00,,,0.00,Wunderground v.1.15,2013-06-24 11:06:00,
2013-06-24 07:13:00,67.4,63.1,30.04,SE,127,1.0,3.0,86,0.00,,,0.00,Wunderground v.1.15,2013-06-24 11:13:00,
2013-06-24 07:18:00,67.6,63.3,30.05,SE,126,1.0,3.0,86,0.00,,,0.00,Wunderground v.1.15,2013-06-24 11:18:00,
2013-06-24 07:25:00,68.0,63.7,30.05,SE,130,1.0,3.0,86,0.00,,,0.00,Wunderground v.1.15,2013-06-24 11:25:00,
2013-06-24 07:30:00,68.4,64.0,30.05,SE,134,0.0,3.0,86,0.00,,,0.00,Wunderground v.1.15,2013-06-24 11:30:00,
2013-06-24 07:36:00,68.8,64.1,30.05,SSW,201,0.0,3.0,85,0.00,,,0.00,Wunderground v.1.15,2013-06-24 11:36:00,
2013-06-24 07:42:00,69.4,64.4,30.05,SE,124,1.0,4.0,84,0.00,,,0.00,Wunderground v.1.15,2013-06-24 11:42:00,
2013-06-24 07:48:00,69.6,64.2,30.05,SE,141,2.0,4.0,83,0.00,,,0.00,Wunderground v.1.15,2013-06-24 11:48:00,
2013-06-24 07:53:00,69.8,64.4,30.06,SSW,200,3.0,5.0,83,0.00,,,0.00,Wunderground v.1.15,2013-06-24 11:53:00,
2013-06-24 07:58:00,70.3,64.9,30.05,ESE,115,2.0,4.0,83,0.00,,,0.00,Wunderground v.1.15,2013-06-24 11:58:00,
2013-06-24 08:06:00,70.8,64.7,30.05,SE,128,1.0,4.0,81,0.00,,,0.00,Wunderground v.1.15,2013-06-24 12:06:00,
2013-06-24 08:11:00,71.1,65.0,30.05,SSE,162,2.0,5.0,81,0.00,,,0.00,Wunderground v.1.15,2013-06-24 12:11:00,
2013-06-24 08:17:00,72.0,65.1,30.05,SE,141,1.0,5.0,79,0.00,,,0.00,Wunderground v.1.15,2013-06-24 12:17:00,
2013-06-24 08:23:00,72.9,65.6,30.05,SE,132,1.0,5.0,78,0.00,,,0.00,Wunderground v.1.15,2013-06-24 12:23:00,
2013-06-24 08:28:00,73.5,65.8,30.05,SE,136,2.0,5.0,77,0.00,,,0.00,Wunderground v.1.15,2013-06-24 12:28:00,
2013-06-24 08:34:00,73.6,65.6,30.05,ESE,119,3.0,7.0,76,0.00,,,0.00,Wunderground v.1.15,2013-06-24 12:34:00,
2013-06-24 08:40:00,74.6,66.1,30.05,SSE,160,2.0,7.0,75,0.00,,,0.00,Wunderground v.1.15,2013-06-24 12:40:00,
2013-06-24 08:46:00,75.0,66.1,30.05,ESE,122,2.0,7.0,74,0.00,,,0.00,Wunderground v.1.15,2013-06-24 12:46:00,
2013-06-24 08:52:00,75.4,66.1,30.05,SE,132,2.0,7.0,73,0.00,,,0.00,Wunderground v.1.15,2013-06-24 12:52:00,
2013-06-24 08:58:00,75.9,66.6,30.06,SW,228,1.0,7.0,73,0.00,,,0.00,Wunderground v.1.15,2013-06-24 12:58:00,
2013-06-24 09:04:00,76.2,66.5,30.05,WSW,250,1.0,7.0,72,0.00,,,0.00,Wunderground v.1.15,2013-06-24 13:04:00,
2013-06-24 09:09:00,76.6,66.9,30.06,WSW,256,1.0,7.0,72,0.00,,,0.00,Wunderground v.1.15,2013-06-24 13:09:00,
2013-06-24 09:16:00,76.7,67.0,30.06,WSW,243,2.0,7.0,72,0.00,,,0.00,Wunderground v.1.15,2013-06-24 13:16:00,
2013-06-24 09:22:00,77.0,67.3,30.06,SE,136,2.0,7.0,72,0.00,,,0.00,Wunderground v.1.15,2013-06-24 13:22:00,
2013-06-24 09:27:00,77.7,67.5,30.06,SSW,212,2.0,7.0,71,0.00,,,0.00,Wunderground v.1.15,2013-06-24 13:27:00,
2013-06-24 09:33:00,78.3,67.7,30.05,SSE,153,2.0,7.0,70,0.00,,,0.00,Wunderground v.1.15,2013-06-24 13:33:00,
2013-06-24 09:40:00,79.2,67.3,30.06,WSW,256,1.0,6.0,67,0.00,,,0.00,Wunderground v.1.15,2013-06-24 13:40:00,
2013-06-24 09:47:00,79.1,67.6,30.06,SSE,166,2.0,6.0,68,0.00,,,0.00,Wunderground v.1.15,2013-06-24 13:47:00,
2013-06-24 09:54:00,79.2,67.3,30.05,WSW,245,2.0,6.0,67,0.00,,,0.00,Wunderground v.1.15,2013-06-24 13:54:00,
2013-06-24 09:59:00,79.2,68.1,30.05,West,262,2.0,6.0,69,0.00,,,0.00,Wunderground v.1.15,2013-06-24 13:59:00,
2013-06-24 10:05:00,80.1,68.2,30.05,South,190,2.0,6.0,67,0.00,,,0.00,Wunderground v.1.15,2013-06-24 14:05:00,
2013-06-24 10:10:00,80.3,67.5,30.05,SSW,193,2.0,6.0,65,0.00,,,0.00,Wunderground v.1.15,2013-06-24 14:10:00,
2013-06-24 10:16:00,80.5,67.2,30.05,SSW,197,3.0,6.0,64,0.00,,,0.00,Wunderground v.1.15,2013-06-24 14:16:00,
2013-06-24 10:22:00,81.1,67.8,30.05,SSW,208,3.0,6.0,64,0.00,,,0.00,Wunderground v.1.15,2013-06-24 14:22:00,
2013-06-24 10:29:00,81.9,68.1,30.05,NW,308,2.0,6.0,63,0.00,,,0.00,Wunderground v.1.15,2013-06-24 14:29:00,
2013-06-24 10:34:00,81.9,67.6,30.05,West,274,2.0,6.0,62,0.00,,,0.00,Wunderground v.1.15,2013-06-24 14:34:00,
2013-06-24 10:40:00,81.9,66.6,30.05,West,271,3.0,8.0,60,0.00,,,0.00,Wunderground v.1.15,2013-06-24 14:40:00,
2013-06-24 10:46:00,81.7,66.9,30.05,SE,133,3.0,9.0,61,0.00,,,0.00,Wunderground v.1.15,2013-06-24 14:46:00,
2013-06-24 10:51:00,82.4,67.1,30.05,SE,132,4.0,8.0,60,0.00,,,0.00,Wunderground v.1.15,2013-06-24 14:51:00,
2013-06-24 10:58:00,82.4,66.6,30.05,SW,236,4.0,4.0,59,0.00,,,0.00,Wunderground v.1.15,2013-06-24 14:58:00,
2013-06-24 11:04:00,83.0,66.7,30.05,WSW,242,4.0,8.0,58,0.00,,,0.00,Wunderground v.1.15,2013-06-24 15:04:00,
2013-06-24 11:10:00,83.5,67.2,30.05,WSW,256,4.0,10.0,58,0.00,,,0.00,Wunderground v.1.15,2013-06-24 15:10:00,
2013-06-24 11:16:00,83.2,66.4,30.05,West,281,4.0,10.0,57,0.00,,,0.00,Wunderground v.1.15,2013-06-24 15:16:00,
2013-06-24 11:23:00,83.8,67.9,30.05,NW,323,4.0,10.0,59,0.00,,,0.00,Wunderground v.1.15,2013-06-24 15:23:00,
2013-06-24 11:29:00,84.5,68.6,30.05,SE,124,2.0,10.0,59,0.00,,,0.00,Wunderground v.1.15,2013-06-24 15:29:00,
2013-06-24 11:35:00,83.9,68.0,30.04,West,276,3.0,10.0,59,0.00,,,0.00,Wunderground v.1.15,2013-06-24 15:35:00,
2013-06-24 11:41:00,84.3,67.9,30.04,SW,221,4.0,10.0,58,0.00,,,0.00,Wunderground v.1.15,2013-06-24 15:41:00,
2013-06-24 11:46:00,84.3,67.9,30.04,South,173,4.0,10.0,58,0.00,,,0.00,Wunderground v.1.15,2013-06-24 15:46:00,
2013-06-24 11:52:00,84.1,67.2,30.05,WNW,294,4.0,10.0,57,0.00,,,0.00,Wunderground v.1.15,2013-06-24 15:52:00,
2013-06-24 11:58:00,83.8,67.9,30.04,NNW,332,5.0,5.0,59,0.00,,,0.00,Wunderground v.1.15,2013-06-24 15:58:00,
2013-06-24 12:05:00,84.7,67.8,30.04,West,273,4.0,10.0,57,0.00,,,0.00,Wunderground v.1.15,2013-06-24 16:05:00,
2013-06-24 12:10:00,85.7,68.7,30.04,West,281,3.0,10.0,57,0.00,,,0.00,Wunderground v.1.15,2013-06-24 16:10:00,
2013-06-24 12:18:00,86.2,67.1,30.04,WSW,249,3.0,12.0,53,0.00,,,0.00,Wunderground v.1.15,2013-06-24 16:18:00,
2013-06-24 12:23:00,85.1,67.1,30.04,West,259,4.0,12.0,55,0.00,,,0.00,Wunderground v.1.15,2013-06-24 16:23:00,
2013-06-24 12:28:00,85.1,68.2,30.04,NW,314,4.0,4.0,57,0.00,,,0.00,Wunderground v.1.15,2013-06-24 16:28:00,
2013-06-24 12:33:00,85.6,68.1,30.04,WSW,255,3.0,12.0,56,0.00,,,0.00,Wunderground v.1.15,2013-06-24 16:33:00,
2013-06-24 12:39:00,85.1,67.1,30.04,SW,227,4.0,12.0,55,0.00,,,0.00,Wunderground v.1.15,2013-06-24 16:39:00,
2013-06-24 12:45:00,86.1,67.0,30.04,SSW,203,4.0,12.0,53,0.00,,,0.00,Wunderground v.1.15,2013-06-24 16:45:00,
2013-06-24 12:51:00,85.3,66.8,30.04,West,270,4.0,11.0,54,0.00,,,0.00,Wunderground v.1.15,2013-06-24 16:51:00,
2013-06-24 12:56:00,85.2,66.7,30.04,WNW,290,5.0,11.0,54,0.00,,,0.00,Wunderground v.1.15,2013-06-24 16:56:00,
2013-06-24 13:03:00,84.5,65.5,30.03,West,279,6.0,11.0,53,0.00,,,0.00,Wunderground v.1.15,2013-06-24 17:03:00,
2013-06-24 13:08:00,84.7,66.2,30.03,WNW,287,5.0,11.0,54,0.00,,,0.00,Wunderground v.1.15,2013-06-24 17:08:00,
2013-06-24 13:15:00,85.4,64.6,30.03,WNW,290,3.0,11.0,50,0.00,,,0.00,Wunderground v.1.15,2013-06-24 17:15:00,
2013-06-24 13:20:00,86.0,65.8,30.03,WNW,301,3.0,14.0,51,0.00,,,0.00,Wunderground v.1.15,2013-06-24 17:20:00,
2013-06-24 13:28:00,86.1,65.9,30.02,West,280,3.0,3.0,51,0.00,,,0.00,Wunderground v.1.15,2013-06-24 17:28:00,
2013-06-24 13:34:00,87.2,66.3,30.02,WNW,283,3.0,14.0,50,0.00,,,0.00,Wunderground v.1.15,2013-06-24 17:34:00,
2013-06-24 13:39:00,87.4,67.1,30.02,WSW,238,3.0,14.0,51,0.00,,,0.00,Wunderground v.1.15,2013-06-24 17:39:00,
2013-06-24 13:45:00,87.3,67.0,30.02,SW,226,4.0,14.0,51,0.00,,,0.00,Wunderground v.1.15,2013-06-24 17:45:00,
2013-06-24 13:53:00,86.9,67.2,30.01,WSW,249,4.0,14.0,52,0.00,,,0.00,Wunderground v.1.15,2013-06-24 17:53:00,
2013-06-24 13:59:00,86.8,67.6,30.01,NW,322,4.0,12.0,53,0.00,,,0.00,Wunderground v.1.15,2013-06-24 17:59:00,
2013-06-24 14:06:00,87.7,67.3,30.01,SW,233,3.0,12.0,51,0.00,,,0.00,Wunderground v.1.15,2013-06-24 18:06:00,
2013-06-24 14:13:00,86.5,67.3,30.01,WSW,252,5.0,11.0,53,0.00,,,0.00,Wunderground v.1.15,2013-06-24 18:13:00,
2013-06-24 14:18:00,87.2,68.0,30.00,ESE,110,4.0,4.0,53,0.00,,,0.00,Wunderground v.1.15,2013-06-24 18:18:00,
2013-06-24 14:25:00,87.6,67.2,30.00,WSW,246,3.0,11.0,51,0.00,,,0.00,Wunderground v.1.15,2013-06-24 18:25:00,
2013-06-24 14:31:00,87.1,66.8,30.00,SW,220,4.0,11.0,51,0.00,,,0.00,Wunderground v.1.15,2013-06-24 18:31:00,
2013-06-24 14:36:00,87.1,67.3,29.99,West,266,5.0,11.0,52,0.00,,,0.00,Wunderground v.1.15,2013-06-24 18:36:00,
2013-06-24 14:42:00,86.3,66.6,29.99,NNW,339,4.0,11.0,52,0.00,,,0.00,Wunderground v.1.15,2013-06-24 18:42:00,
2013-06-24 14:47:00,86.7,68.1,29.99,WSW,253,3.0,12.0,54,0.00,,,0.00,Wunderground v.1.15,2013-06-24 18:47:00,
2013-06-24 14:53:00,87.3,67.5,29.98,North,355,3.0,12.0,52,0.00,,,0.00,Wunderground v.1.15,2013-06-24 18:53:00,
2013-06-24 14:58:00,88.1,66.5,29.98,NNE,23,3.0,12.0,49,0.00,,,0.00,Wunderground v.1.15,2013-06-24 18:58:00,
2013-06-24 15:06:00,87.5,67.1,29.97,NNW,340,4.0,12.0,51,0.00,,,0.00,Wunderground v.1.15,2013-06-24 19:06:00,
2013-06-24 15:12:00,87.2,66.9,29.97,NNW,334,4.0,13.0,51,0.00,,,0.00,Wunderground v.1.15,2013-06-24 19:12:00,
2013-06-24 15:17:00,88.4,67.4,29.97,South,180,2.0,13.0,50,0.00,,,0.00,Wunderground v.1.15,2013-06-24 19:17:00,
2013-06-24 15:23:00,89.2,68.1,29.97,WSW,258,2.0,13.0,50,0.00,,,0.00,Wunderground v.1.15,2013-06-24 19:23:00,
2013-06-24 15:28:00,88.8,67.8,29.97,WNW,291,3.0,13.0,50,0.00,,,0.00,Wunderground v.1.15,2013-06-24 19:28:00,
2013-06-24 15:34:00,87.2,66.9,29.97,West,276,4.0,13.0,51,0.00,,,0.00,Wunderground v.1.15,2013-06-24 19:34:00,
2013-06-24 15:40:00,87.2,66.9,29.97,ENE,69,5.0,13.0,51,0.00,,,0.00,Wunderground v.1.15,2013-06-24 19:40:00,
2013-06-24 15:46:00,87.3,67.0,29.96,West,264,4.0,13.0,51,0.00,,,0.00,Wunderground v.1.15,2013-06-24 19:46:00,
2013-06-24 15:51:00,87.6,66.7,29.96,WNW,286,4.0,16.0,50,0.00,,,0.00,Wunderground v.1.15,2013-06-24 19:51:00,
2013-06-24 15:59:00,88.1,68.8,29.96,West,279,4.0,16.0,53,0.00,,,0.00,Wunderground v.1.15,2013-06-24 19:59:00,
2013-06-24 16:05:00,88.4,67.4,29.95,NW,314,3.0,16.0,50,0.00,,,0.00,Wunderground v.1.15,2013-06-24 20:05:00,
2013-06-24 16:11:00,87.8,65.1,29.95,West,269,4.0,11.0,47,0.00,,,0.00,Wunderground v.1.15,2013-06-24 20:11:00,
2013-06-24 16:17:00,88.0,66.4,29.95,SW,235,5.0,11.0,49,0.00,,,0.00,Wunderground v.1.15,2013-06-24 20:17:00,
2013-06-24 16:23:00,89.2,66.3,29.94,NW,312,3.0,11.0,47,0.00,,,0.00,Wunderground v.1.15,2013-06-24 20:23:00,
2013-06-24 16:28:00,88.2,65.4,29.94,West,266,4.0,11.0,47,0.00,,,0.00,Wunderground v.1.15,2013-06-24 20:28:00,
2013-06-24 16:34:00,88.1,65.3,29.94,WSW,258,5.0,11.0,47,0.00,,,0.00,Wunderground v.1.15,2013-06-24 20:34:00,
2013-06-24 16:41:00,88.4,66.2,29.94,West,278,4.0,11.0,48,0.00,,,0.00,Wunderground v.1.15,2013-06-24 20:41:00,
2013-06-24 16:47:00,88.8,66.0,29.93,West,274,3.0,11.0,47,0.00,,,0.00,Wunderground v.1.15,2013-06-24 20:47:00,
2013-06-24 16:54:00,88.7,66.5,29.93,SSE,163,3.0,13.0,48,0.00,,,0.00,Wunderground v.1.15,2013-06-24 20:54:00,
2013-06-24 16:59:00,87.9,65.2,29.94,SSW,200,4.0,13.0,47,0.00,,,0.00,Wunderground v.1.15,2013-06-24 20:59:00,
2013-06-24 17:06:00,87.2,65.1,29.93,SW,214,4.0,13.0,48,0.00,,,0.00,Wunderground v.1.15,2013-06-24 21:06:00,
2013-06-24 17:11:00,87.2,65.7,29.93,West,267,4.0,13.0,49,0.00,,,0.00,Wunderground v.1.15,2013-06-24 21:11:00,
2013-06-24 17:18:00,87.0,66.1,29.93,West,279,4.0,9.0,50,0.00,,,0.00,Wunderground v.1.15,2013-06-24 21:18:00,
2013-06-24 17:24:00,87.0,67.2,29.93,WSW,245,5.0,9.0,52,0.00,,,0.00,Wunderground v.1.15,2013-06-24 21:24:00,
2013-06-24 17:29:00,86.8,67.1,29.93,WSW,237,5.0,9.0,52,0.00,,,0.00,Wunderground v.1.15,2013-06-24 21:29:00,
2013-06-24 17:34:00,87.0,67.2,29.93,West,262,5.0,9.0,52,0.00,,,0.00,Wunderground v.1.15,2013-06-24 21:34:00,
2013-06-24 17:39:00,87.0,67.8,29.93,WSW,257,4.0,14.0,53,0.00,,,0.00,Wunderground v.1.15,2013-06-24 21:39:00,
2013-06-24 17:45:00,86.6,68.0,29.93,WNW,294,4.0,14.0,54,0.00,,,0.00,Wunderground v.1.15,2013-06-24 21:45:00,
2013-06-24 17:51:00,86.8,68.7,29.93,West,267,4.0,14.0,55,0.00,,,0.00,Wunderground v.1.15,2013-06-24 21:51:00,
2013-06-24 17:56:00,87.3,68.6,29.93,West,280,2.0,14.0,54,0.00,,,0.00,Wunderground v.1.15,2013-06-24 21:56:00,
2013-06-24 18:03:00,87.2,68.0,29.93,WSW,242,2.0,14.0,53,0.00,,,0.00,Wunderground v.1.15,2013-06-24 22:03:00,
2013-06-24 18:08:00,86.6,68.0,29.93,West,259,3.0,12.0,54,0.00,,,0.00,Wunderground v.1.15,2013-06-24 22:08:00,
2013-06-24 18:14:00,86.3,67.7,29.93,WSW,248,4.0,12.0,54,0.00,,,0.00,Wunderground v.1.15,2013-06-24 22:14:00,
2013-06-24 18:20:00,85.9,67.9,29.92,NW,326,4.0,12.0,55,0.00,,,0.00,Wunderground v.1.15,2013-06-24 22:20:00,
2013-06-24 18:26:00,86.3,68.8,29.92,WSW,246,3.0,12.0,56,0.00,,,0.00,Wunderground v.1.15,2013-06-24 22:26:00,
2013-06-24 18:31:00,86.9,67.7,29.92,SSE,148,2.0,12.0,53,0.00,,,0.00,Wunderground v.1.15,2013-06-24 22:31:00,
2013-06-24 18:36:00,86.4,67.2,29.92,WSW,255,3.0,12.0,53,0.00,,,0.00,Wunderground v.1.15,2013-06-24 22:36:00,
2013-06-24 18:42:00,86.0,66.9,29.92,West,259,4.0,13.0,53,0.00,,,0.00,Wunderground v.1.15,2013-06-24 22:42:00,
2013-06-24 18:48:00,86.4,67.2,29.92,West,271,3.0,13.0,53,0.00,,,0.00,Wunderground v.1.15,2013-06-24 22:48:00,
2013-06-24 18:53:00,86.3,67.7,29.92,WSW,246,2.0,13.0,54,0.00,,,0.00,Wunderground v.1.15,2013-06-24 22:53:00,
2013-06-24 18:58:00,86.5,67.3,29.92,West,275,2.0,13.0,53,0.00,,,0.00,Wunderground v.1.15,2013-06-24 22:58:00,
2013-06-24 19:04:00,86.3,67.2,29.92,WSW,243,2.0,13.0,53,0.00,,,0.00,Wunderground v.1.15,2013-06-24 23:04:00,
2013-06-24 19:09:00,85.8,67.8,29.92,SW,233,3.0,10.0,55,0.00,,,0.00,Wunderground v.1.15,2013-06-24 23:09:00,
2013-06-24 19:14:00,86.2,67.6,29.92,SW,233,3.0,10.0,54,0.00,,,0.00,Wunderground v.1.15,2013-06-24 23:14:00,
2013-06-24 19:20:00,86.2,67.6,29.92,SSW,194,2.0,10.0,54,0.00,,,0.00,Wunderground v.1.15,2013-06-24 23:20:00,
2013-06-24 19:26:00,86.3,67.7,29.92,WSW,248,2.0,10.0,54,0.00,,,0.00,Wunderground v.1.15,2013-06-24 23:26:00,
2013-06-24 19:32:00,86.2,67.6,29.92,South,170,3.0,10.0,54,0.00,,,0.00,Wunderground v.1.15,2013-06-24 23:32:00,
2013-06-24 19:38:00,86.0,68.0,29.92,SW,214,2.0,8.0,55,0.00,,,0.00,Wunderground v.1.15,2013-06-24 23:38:00,
2013-06-24 19:45:00,86.0,68.5,29.92,SSE,163,2.0,8.0,56,0.00,,,0.00,Wunderground v.1.15,2013-06-24 23:45:00,
2013-06-24 19:50:00,85.8,68.8,29.92,WNW,285,2.0,8.0,57,0.00,,,0.00,Wunderground v.1.15,2013-06-24 23:50:00,
2013-06-24 19:55:00,85.3,68.3,29.92,WSW,248,2.0,8.0,57,0.00,,,0.00,Wunderground v.1.15,2013-06-24 23:55:00,
2013-06-24 20:00:00,85.2,68.8,29.92,West,274,2.0,8.0,58,0.00,,,0.00,Wunderground v.1.15,2013-06-25 00:00:00,
2013-06-24 20:06:00,84.7,68.3,29.93,SW,229,2.0,8.0,58,0.00,,,0.00,Wunderground v.1.15,2013-06-25 00:06:00,
2013-06-24 20:14:00,84.2,68.8,29.93,West,278,2.0,8.0,60,0.00,,,0.00,Wunderground v.1.15,2013-06-25 00:14:00,
2013-06-24 20:19:00,83.9,68.5,29.93,WSW,246,1.0,8.0,60,0.00,,,0.00,Wunderground v.1.15,2013-06-25 00:19:00,
2013-06-24 20:28:00,83.3,68.9,29.93,WSW,255,2.0,8.0,62,0.00,,,0.00,Wunderground v.1.15,2013-06-25 00:28:00,
2013-06-24 20:33:00,82.8,68.9,29.93,SSW,204,1.0,8.0,63,0.00,,,0.00,Wunderground v.1.15,2013-06-25 00:33:00,
2013-06-24 20:40:00,82.3,68.9,29.93,South,190,0.0,7.0,64,0.00,,,0.00,Wunderground v.1.15,2013-06-25 00:40:00,
2013-06-24 20:45:00,81.8,68.4,29.93,SSE,163,0.0,7.0,64,0.00,,,0.00,Wunderground v.1.15,2013-06-25 00:45:00,
2013-06-24 20:51:00,81.3,68.4,29.93,SSW,205,1.0,7.0,65,0.00,,,0.00,Wunderground v.1.15,2013-06-25 00:51:00,
2013-06-24 20:56:00,81.0,68.6,29.93,SSW,204,1.0,7.0,66,0.00,,,0.00,Wunderground v.1.15,2013-06-25 00:56:00,
2013-06-24 21:02:00,80.5,68.1,29.93,South,172,1.0,7.0,66,0.00,,,0.00,Wunderground v.1.15,2013-06-25 01:02:00,
2013-06-24 21:08:00,80.2,68.2,29.93,SE,136,0.0,7.0,67,0.00,,,0.00,Wunderground v.1.15,2013-06-25 01:08:00,
2013-06-24 21:14:00,79.8,68.3,29.93,SSE,166,1.0,7.0,68,0.00,,,0.00,Wunderground v.1.15,2013-06-25 01:14:00,
2013-06-24 21:20:00,79.4,67.9,29.93,SE,138,1.0,7.0,68,0.00,,,0.00,Wunderground v.1.15,2013-06-25 01:20:00,
2013-06-24 21:25:00,79.0,68.0,29.93,SSE,148,1.0,7.0,69,0.00,,,0.00,Wunderground v.1.15,2013-06-25 01:25:00,
2013-06-24 21:30:00,78.8,67.8,29.93,East,98,2.0,7.0,69,0.00,,,0.00,Wunderground v.1.15,2013-06-25 01:30:00,
2013-06-24 21:38:00,78.5,67.9,29.93,SSE,160,2.0,2.0,70,0.00,,,0.00,Wunderground v.1.15,2013-06-25 01:38:00,
2013-06-24 21:43:00,78.3,68.1,29.92,SE,132,1.0,4.0,71,0.00,,,0.00,Wunderground v.1.15,2013-06-25 01:43:00,
2013-06-24 21:48:00,78.0,67.8,29.92,SE,131,1.0,4.0,71,0.00,,,0.00,Wunderground v.1.15,2013-06-25 01:48:00,
2013-06-24 21:54:00,77.9,68.1,29.93,SSE,152,1.0,4.0,72,0.00,,,0.00,Wunderground v.1.15,2013-06-25 01:54:00,
2013-06-24 21:59:00,77.7,68.0,29.93,SSE,148,1.0,4.0,72,0.00,,,0.00,Wunderground v.1.15,2013-06-25 01:59:00,
2013-06-24 22:07:00,77.4,68.1,29.93,SE,136,2.0,4.0,73,0.00,,,0.00,Wunderground v.1.15,2013-06-25 02:07:00,
2013-06-24 22:14:00,77.1,68.2,29.93,SE,131,2.0,4.0,74,0.00,,,0.00,Wunderground v.1.15,2013-06-25 02:14:00,
2013-06-24 22:19:00,77.0,68.1,29.93,ESE,122,2.0,4.0,74,0.00,,,0.00,Wunderground v.1.15,2013-06-25 02:19:00,
2013-06-24 22:26:00,76.9,68.0,29.93,South,186,2.0,4.0,74,0.00,,,0.00,Wunderground v.1.15,2013-06-25 02:26:00,
2013-06-24 22:32:00,76.8,68.3,29.93,WSW,256,2.0,4.0,75,0.00,,,0.00,Wunderground v.1.15,2013-06-25 02:32:00,
2013-06-24 22:38:00,76.7,68.2,29.94,SSE,155,1.0,4.0,75,0.00,,,0.00,Wunderground v.1.15,2013-06-25 02:38:00,
2013-06-24 22:45:00,76.6,68.1,29.94,SE,138,1.0,4.0,75,0.00,,,0.00,Wunderground v.1.15,2013-06-25 02:45:00,
2013-06-24 22:51:00,76.4,68.3,29.94,SSE,148,1.0,4.0,76,0.00,,,0.00,Wunderground v.1.15,2013-06-25 02:51:00,
2013-06-24 22:56:00,76.3,68.2,29.94,SE,130,1.0,4.0,76,0.00,,,0.00,Wunderground v.1.15,2013-06-25 02:56:00,
2013-06-24 23:02:00,76.3,68.2,29.94,SSE,153,2.0,5.0,76,0.00,,,0.00,Wunderground v.1.15,2013-06-25 03:02:00,
2013-06-24 23:08:00,76.3,68.2,29.94,SSE,153,2.0,2.0,76,0.00,,,0.00,Wunderground v.1.15,2013-06-25 03:08:00,
2013-06-24 23:14:00,76.2,68.5,29.94,SSE,150,2.0,6.0,77,0.00,,,0.00,Wunderground v.1.15,2013-06-25 03:14:00,
2013-06-24 23:20:00,76.0,68.3,29.94,South,172,2.0,6.0,77,0.00,,,0.00,Wunderground v.1.15,2013-06-25 03:20:00,
2013-06-24 23:25:00,75.8,68.4,29.94,SE,138,1.0,6.0,78,0.00,,,0.00,Wunderground v.1.15,2013-06-25 03:25:00,
2013-06-24 23:30:00,75.7,68.4,29.94,SE,134,1.0,6.0,78,0.00,,,0.00,Wunderground v.1.15,2013-06-25 03:30:00,
2013-06-24 23:36:00,75.5,68.2,29.95,SSE,150,1.0,6.0,78,0.00,,,0.00,Wunderground v.1.15,2013-06-25 03:36:00,
2013-06-24 23:42:00,75.3,68.3,29.95,SE,136,1.0,6.0,79,0.00,,,0.00,Wunderground v.1.15,2013-06-25 03:42:00,
2013-06-24 23:48:00,75.2,68.2,29.96,SSE,151,1.0,6.0,79,0.00,,,0.00,Wunderground v.1.15,2013-06-25 03:48:00,
2013-06-24 23:53:00,75.1,68.1,29.95,SSE,166,1.0,6.0,79,0.00,,,0.00,Wunderground v.1.15,2013-06-25 03:53:00,
2013-06-24 23:59:00,75.0,68.0,29.95,SE,131,2.0,6.0,79,0.00,,,0.00,Wunderground v.1.15,2013-06-25 03:59:00,